,,PA_Meas_PMT16A,,PR_Meas_QMR101_102,,RH_Meas_QMH101,,SR_Meas_QMS101,,TA_Meas_QMH101,,GenWind,,GenWind,
time,status,PA,status,PR,status,RH,status,SR,status,TA,status,DirAvg,status,SpdAvg,
2013-01-11, 00:00:04,VALID,918.29,VALID,0,VALID,93.3564,VALID,0,VALID,19.7433,VALID,346,VALID,0,
2013-01-11, 00:01:04,VALID,918.27,VALID,0,VALID,93.3792,VALID,0.107441,VALID,19.7238,VALID,346,VALID,0,
2013-01-11, 00:02:04,VALID,918.239,VALID,0,VALID,93.3564,VALID,0,VALID,19.7628,VALID,346,VALID,0,
2013-01-11, 00:03:04,VALID,918.233,VALID,0,VALID,93.2649,VALID,0.107441,VALID,19.8018,VALID,346,VALID,0,
2013-01-11, 00:04:04,VALID,918.254,VALID,0,VALID,93.12,VALID,0,VALID,19.7433,VALID,346,VALID,0,
2013-01-11, 00:05:04,VALID,918.193,VALID,0,VALID,93.0514,VALID,0,VALID,19.7823,VALID,346,VALID,0,
2013-01-11, 00:06:04,VALID,918.187,VALID,0,VALID,93.1048,VALID,0,VALID,19.7628,VALID,346,VALID,0,
2013-01-11, 00:07:04,VALID,918.19,VALID,0,VALID,93.1505,VALID,0,VALID,19.6848,VALID,346,VALID,0,
2013-01-11, 00:08:04,VALID,918.217,VALID,0,VALID,93.2496,VALID,0,VALID,19.6848,VALID,346,VALID,0,
2013-01-11, 00:09:04,VALID,918.213,VALID,0,VALID,93.3792,VALID,0,VALID,19.6458,VALID,346,VALID,0,
2013-01-11, 00:10:04,VALID,918.222,VALID,0,VALID,93.6384,VALID,0,VALID,19.6653,VALID,346,VALID,0,
2013-01-11, 00:11:04,VALID,918.266,VALID,0,VALID,93.6613,VALID,0,VALID,19.7433,VALID,346,VALID,0,
2013-01-11, 00:12:04,VALID,918.227,VALID,0,VALID,93.5088,VALID,0,VALID,19.8033,VALID,346,VALID,0,
2013-01-11, 00:13:04,VALID,918.235,VALID,0,VALID,93.242,VALID,0,VALID,19.8018,VALID,346,VALID,0,
2013-01-11, 00:14:04,VALID,918.241,VALID,0,VALID,92.7998,VALID,0,VALID,19.7823,VALID,346,VALID,0,
2013-01-11, 00:15:04,VALID,918.218,VALID,0,VALID,92.6626,VALID,0,VALID,19.8018,VALID,23,VALID,0,
2013-01-11, 00:16:04,VALID,918.252,VALID,0,VALID,92.3729,VALID,0,VALID,19.8408,VALID,32,VALID,0,
2013-01-11, 00:17:04,VALID,918.276,VALID,0,VALID,91.9536,VALID,0,VALID,19.8813,VALID,31,VALID,0,
2013-01-11, 00:18:04,VALID,918.254,VALID,0,VALID,91.8393,VALID,0,VALID,19.8213,VALID,349,VALID,0,
2013-01-11, 00:19:04,VALID,918.265,VALID,0,VALID,92.2281,VALID,0,VALID,19.8018,VALID,349,VALID,0,
2013-01-11, 00:20:04,VALID,918.28,VALID,0,VALID,92.4797,VALID,0,VALID,19.8213,VALID,349,VALID,0,
2013-01-11, 00:21:04,VALID,918.239,VALID,0,VALID,92.2586,VALID,0,VALID,19.8018,VALID,349,VALID,0,
2013-01-11, 00:22:04,VALID,918.26,VALID,0,VALID,91.9079,VALID,0,VALID,19.7238,VALID,349,VALID,0,
2013-01-11, 00:23:04,VALID,918.249,VALID,0,VALID,92.4034,VALID,0,VALID,19.7628,VALID,295,VALID,0,
2013-01-11, 00:24:04,VALID,918.237,VALID,0,VALID,92.6397,VALID,0,VALID,19.7238,VALID,295,VALID,0,
2013-01-11, 00:25:04,VALID,918.229,VALID,0,VALID,92.7541,VALID,0,VALID,19.7433,VALID,295,VALID,0,
2013-01-11, 00:26:04,VALID,918.235,VALID,0,VALID,92.2205,VALID,0,VALID,19.7238,VALID,295,VALID,0,
2013-01-11, 00:27:04,VALID,918.196,VALID,0,VALID,91.7935,VALID,0,VALID,19.6848,VALID,295,VALID,0,
2013-01-11, 00:28:04,VALID,918.208,VALID,0,VALID,92.0832,VALID,0,VALID,19.5858,VALID,295,VALID,0,
2013-01-11, 00:29:04,VALID,918.206,VALID,0,VALID,92.9828,VALID,0,VALID,19.6068,VALID,295,VALID,0,
2013-01-11, 00:30:04,VALID,918.162,VALID,0,VALID,93.4555,VALID,0,VALID,19.6068,VALID,295,VALID,0,
2013-01-11, 00:31:04,VALID,918.146,VALID,0,VALID,93.6079,VALID,0,VALID,19.5273,VALID,295,VALID,0,
2013-01-11, 00:32:04,VALID,918.149,VALID,0,VALID,93.4783,VALID,0,VALID,19.6263,VALID,295,VALID,0,
2013-01-11, 00:33:04,VALID,918.119,VALID,0,VALID,93.7147,VALID,0,VALID,19.7238,VALID,295,VALID,0,
2013-01-11, 00:34:04,VALID,918.139,VALID,0,VALID,93.646,VALID,0,VALID,19.7043,VALID,295,VALID,0,
2013-01-11, 00:35:04,VALID,918.15,VALID,0,VALID,93.3868,VALID,0,VALID,19.6068,VALID,295,VALID,0,
2013-01-11, 00:36:04,VALID,918.138,VALID,0,VALID,92.8303,VALID,0,VALID,19.6638,VALID,295,VALID,0,
2013-01-11, 00:37:04,VALID,918.072,VALID,0,VALID,93.1886,VALID,0,VALID,19.6263,VALID,295,VALID,0,
2013-01-11, 00:38:04,VALID,918.088,VALID,0,VALID,93.3411,VALID,0,VALID,19.7043,VALID,295,VALID,0,
2013-01-11, 00:39:04,VALID,918.077,VALID,0,VALID,93.4936,VALID,0,VALID,19.6848,VALID,295,VALID,0,
2013-01-11, 00:40:04,VALID,918.073,VALID,0,VALID,93.5698,VALID,0,VALID,19.6848,VALID,295,VALID,0,
2013-01-11, 00:41:04,VALID,918.065,VALID,0,VALID,93.0819,VALID,0,VALID,19.6653,VALID,295,VALID,0,
2013-01-11, 00:42:04,VALID,918.048,VALID,0,VALID,93.0362,VALID,0,VALID,19.6848,VALID,295,VALID,0,
2013-01-11, 00:43:05,VALID,918.05,VALID,0,VALID,93.2954,VALID,0,VALID,19.7043,VALID,295,VALID,0,
2013-01-11, 00:44:05,VALID,918.047,VALID,0,VALID,93.3411,VALID,0,VALID,19.7433,VALID,295,VALID,0,
2013-01-11, 00:45:05,VALID,918.027,VALID,0,VALID,93.2725,VALID,0,VALID,19.7433,VALID,295,VALID,0,
2013-01-11, 00:46:05,VALID,918.026,VALID,0,VALID,93.1124,VALID,0,VALID,19.7223,VALID,295,VALID,0,
2013-01-11, 00:47:05,VALID,918.048,VALID,0,VALID,93.0819,VALID,0,VALID,19.7418,VALID,295,VALID,0,
2013-01-11, 00:48:05,VALID,918.05,VALID,0,VALID,93.0514,VALID,0,VALID,19.7628,VALID,295,VALID,0,
2013-01-11, 00:49:05,VALID,918.057,VALID,0,VALID,92.8913,VALID,0,VALID,19.7238,VALID,295,VALID,0,
2013-01-11, 00:50:05,VALID,918.051,VALID,0,VALID,92.9066,VALID,0,VALID,19.7238,VALID,295,VALID,0,
2013-01-11, 00:51:05,VALID,918.061,VALID,0,VALID,92.838,VALID,0.107441,VALID,19.7238,VALID,295,VALID,0,
2013-01-11, 00:52:05,VALID,918.074,VALID,0,VALID,92.7998,VALID,0,VALID,19.7238,VALID,295,VALID,0,
2013-01-11, 00:53:05,VALID,918.06,VALID,0,VALID,92.7236,VALID,0,VALID,19.6848,VALID,295,VALID,0,
2013-01-11, 00:54:05,VALID,918.051,VALID,0,VALID,92.7693,VALID,0,VALID,19.6458,VALID,295,VALID,0,
2013-01-11, 00:55:05,VALID,918.048,VALID,0,VALID,92.6931,VALID,0,VALID,19.6848,VALID,295,VALID,0,
2013-01-11, 00:56:05,VALID,918.027,VALID,0,VALID,92.777,VALID,0,VALID,19.6653,VALID,295,VALID,0,
2013-01-11, 00:57:05,VALID,918.013,VALID,0,VALID,92.8532,VALID,0,VALID,19.7043,VALID,295,VALID,0,
2013-01-11, 00:58:05,VALID,917.967,VALID,0,VALID,92.8151,VALID,0.107441,VALID,19.7043,VALID,295,VALID,0,
2013-01-11, 00:59:05,VALID,917.957,VALID,0,VALID,92.9523,VALID,0,VALID,19.6848,VALID,295,VALID,0,
2013-01-11, 01:00:05,VALID,917.957,VALID,0,VALID,93.2801,VALID,0,VALID,19.7238,VALID,295,VALID,0,
2013-01-11, 01:01:05,VALID,917.941,VALID,0,VALID,93.1734,VALID,0,VALID,19.8003,VALID,295,VALID,0,
2013-01-11, 01:02:05,VALID,917.964,VALID,0,VALID,92.5559,VALID,0,VALID,19.8213,VALID,295,VALID,0,
2013-01-11, 01:03:05,VALID,917.961,VALID,0,VALID,92.3882,VALID,0,VALID,19.8408,VALID,295,VALID,0,
2013-01-11, 01:04:05,VALID,917.933,VALID,0,VALID,92.3272,VALID,0,VALID,19.8423,VALID,295,VALID,0,
2013-01-11, 01:05:05,VALID,917.889,VALID,0,VALID,92.5406,VALID,0,VALID,19.7628,VALID,295,VALID,0,
2013-01-11, 01:06:05,VALID,917.919,VALID,0,VALID,92.7236,VALID,0,VALID,19.7613,VALID,295,VALID,0,
2013-01-11, 01:07:05,VALID,917.896,VALID,0,VALID,92.1137,VALID,0,VALID,19.7418,VALID,295,VALID,0,
2013-01-11, 01:08:05,VALID,917.906,VALID,0,VALID,91.0846,VALID,0,VALID,19.6263,VALID,295,VALID,0,
2013-01-11, 01:09:05,VALID,917.893,VALID,0,VALID,91.9765,VALID,0,VALID,19.5663,VALID,295,VALID,0,
2013-01-11, 01:10:05,VALID,917.916,VALID,0,VALID,92.6702,VALID,0,VALID,19.5483,VALID,295,VALID,0,
2013-01-11, 01:11:05,VALID,917.904,VALID,0,VALID,92.9752,VALID,0,VALID,19.4898,VALID,295,VALID,0,
2013-01-11, 01:12:05,VALID,917.855,VALID,0,VALID,93.2344,VALID,0,VALID,19.5093,VALID,295,VALID,0,
2013-01-11, 01:13:05,VALID,917.837,VALID,0,VALID,93.2268,VALID,0,VALID,19.4508,VALID,295,VALID,0,
2013-01-11, 01:14:05,VALID,917.791,VALID,0,VALID,93.3335,VALID,0,VALID,19.4703,VALID,295,VALID,0,
2013-01-11, 01:15:05,VALID,917.815,VALID,0,VALID,93.6079,VALID,0,VALID,19.4118,VALID,295,VALID,0,
2013-01-11, 01:16:05,VALID,917.803,VALID,0,VALID,93.9129,VALID,0,VALID,19.4313,VALID,295,VALID,0,
2013-01-11, 01:17:05,VALID,917.792,VALID,0,VALID,93.9967,VALID,0,VALID,19.4703,VALID,295,VALID,0,
2013-01-11, 01:18:05,VALID,917.757,VALID,0,VALID,93.9738,VALID,0,VALID,19.4898,VALID,295,VALID,0,
2013-01-11, 01:19:05,VALID,917.734,VALID,0,VALID,94.1034,VALID,0.107441,VALID,19.4313,VALID,295,VALID,0,
2013-01-11, 01:20:05,VALID,917.705,VALID,0,VALID,94.2407,VALID,0,VALID,19.5093,VALID,295,VALID,0,
2013-01-11, 01:21:05,VALID,917.708,VALID,0,VALID,94.355,VALID,0,VALID,19.4703,VALID,295,VALID,0,
2013-01-11, 01:22:05,VALID,917.698,VALID,0,VALID,94.4846,VALID,0,VALID,19.4313,VALID,295,VALID,0,
2013-01-11, 01:23:05,VALID,917.681,VALID,0,VALID,94.5913,VALID,0,VALID,19.4898,VALID,295,VALID,0,
2013-01-11, 01:24:05,VALID,917.63,VALID,0,VALID,94.5913,VALID,0,VALID,19.4703,VALID,295,VALID,0,
2013-01-11, 01:25:05,VALID,917.624,VALID,0,VALID,94.5456,VALID,0,VALID,19.4688,VALID,295,VALID,0,
2013-01-11, 01:26:05,VALID,917.606,VALID,0,VALID,94.5685,VALID,0.107441,VALID,19.4883,VALID,295,VALID,0,
2013-01-11, 01:27:05,VALID,917.614,VALID,0,VALID,94.7057,VALID,0,VALID,19.4898,VALID,295,VALID,0,
2013-01-11, 01:28:05,VALID,917.602,VALID,0,VALID,94.6447,VALID,0,VALID,19.4898,VALID,295,VALID,0,
2013-01-11, 01:29:05,VALID,917.637,VALID,0,VALID,94.6676,VALID,0,VALID,19.5093,VALID,295,VALID,0,
2013-01-11, 01:30:05,VALID,917.578,VALID,0,VALID,94.6142,VALID,0,VALID,19.5873,VALID,295,VALID,0,
2013-01-11, 01:31:05,VALID,917.554,VALID,0,VALID,94.4541,VALID,0,VALID,19.5093,VALID,295,VALID,0,
2013-01-11, 01:32:05,VALID,917.563,VALID,0,VALID,94.3703,VALID,0,VALID,19.5873,VALID,54,VALID,0,
2013-01-11, 01:33:05,VALID,917.564,VALID,0,VALID,94.3474,VALID,0,VALID,19.5873,VALID,55,VALID,0,
2013-01-11, 01:34:05,VALID,917.574,VALID,0,VALID,94.3474,VALID,0,VALID,19.5483,VALID,55,VALID,0,
2013-01-11, 01:35:05,VALID,917.568,VALID,0,VALID,94.4236,VALID,0,VALID,19.5288,VALID,55,VALID,0,
2013-01-11, 01:36:05,VALID,917.539,VALID,0,VALID,94.3474,VALID,0,VALID,19.5678,VALID,55,VALID,0,
2013-01-11, 01:37:05,VALID,917.539,VALID,0,VALID,94.3474,VALID,0,VALID,19.5483,VALID,55,VALID,0,
2013-01-11, 01:38:05,VALID,917.527,VALID,0,VALID,94.3398,VALID,0,VALID,19.4898,VALID,55,VALID,0,
2013-01-11, 01:39:05,VALID,917.497,VALID,0,VALID,94.3626,VALID,0.107441,VALID,19.5288,VALID,55,VALID,0,
2013-01-11, 01:40:05,VALID,917.506,VALID,0,VALID,94.355,VALID,0,VALID,19.5093,VALID,55,VALID,0,
2013-01-11, 01:41:05,VALID,917.482,VALID,0,VALID,94.4008,VALID,0,VALID,19.5093,VALID,55,VALID,0,
2013-01-11, 01:42:05,VALID,917.481,VALID,0,VALID,94.4313,VALID,0,VALID,19.5093,VALID,55,VALID,0,
2013-01-11, 01:43:05,VALID,917.449,VALID,0,VALID,94.4008,VALID,0,VALID,19.4703,VALID,55,VALID,0,
2013-01-11, 01:44:05,VALID,917.422,VALID,0,VALID,94.4008,VALID,0,VALID,19.4508,VALID,55,VALID,0,
2013-01-11, 01:45:05,VALID,917.413,VALID,0,VALID,94.4617,VALID,0,VALID,19.5093,VALID,55,VALID,0,
2013-01-11, 01:46:05,VALID,917.392,VALID,0,VALID,94.4465,VALID,0,VALID,19.4508,VALID,55,VALID,0,
2013-01-11, 01:47:05,VALID,917.372,VALID,0,VALID,94.4236,VALID,0,VALID,19.4898,VALID,55,VALID,0,
2013-01-11, 01:48:05,VALID,917.374,VALID,0,VALID,94.4617,VALID,0.107441,VALID,19.4703,VALID,55,VALID,0,
2013-01-11, 01:49:05,VALID,917.328,VALID,0,VALID,94.3474,VALID,0,VALID,19.4718,VALID,55,VALID,0,
2013-01-11, 01:50:05,VALID,917.307,VALID,0,VALID,94.2483,VALID,0,VALID,19.4523,VALID,55,VALID,0,
2013-01-11, 01:51:05,VALID,917.31,VALID,0,VALID,94.1721,VALID,0,VALID,19.4313,VALID,55,VALID,0,
2013-01-11, 01:52:05,VALID,917.302,VALID,0,VALID,94.3169,VALID,0,VALID,19.4508,VALID,55,VALID,0,
2013-01-11, 01:53:05,VALID,917.252,VALID,0,VALID,94.2788,VALID,0,VALID,19.4703,VALID,55,VALID,0,
2013-01-11, 01:54:05,VALID,917.254,VALID,0,VALID,94.1797,VALID,0,VALID,19.4898,VALID,55,VALID,0,
2013-01-11, 01:55:05,VALID,917.226,VALID,0,VALID,94.1034,VALID,0,VALID,19.4898,VALID,55,VALID,0,
2013-01-11, 01:56:05,VALID,917.248,VALID,0,VALID,93.951,VALID,0,VALID,19.5303,VALID,55,VALID,0,
2013-01-11, 01:57:05,VALID,917.235,VALID,0,VALID,93.7451,VALID,0,VALID,19.5108,VALID,55,VALID,0,
2013-01-11, 01:58:05,VALID,917.23,VALID,0,VALID,93.6308,VALID,0,VALID,19.4508,VALID,55,VALID,0,
2013-01-11, 01:59:05,VALID,917.248,VALID,0,VALID,93.768,VALID,0,VALID,19.4327,VALID,55,VALID,0,
2013-01-11, 02:00:05,VALID,917.205,VALID,0,VALID,93.8747,VALID,0,VALID,19.4508,VALID,55,VALID,0,
2013-01-11, 02:01:05,VALID,917.253,VALID,0,VALID,93.9586,VALID,0,VALID,19.4508,VALID,55,VALID,0,
2013-01-11, 02:02:05,VALID,917.266,VALID,0,VALID,94.0501,VALID,0,VALID,19.4703,VALID,55,VALID,0,
2013-01-11, 02:03:05,VALID,917.236,VALID,0,VALID,93.9967,VALID,0,VALID,19.4508,VALID,55,VALID,0,
2013-01-11, 02:04:05,VALID,917.245,VALID,0,VALID,93.9815,VALID,0,VALID,19.4118,VALID,55,VALID,0,
2013-01-11, 02:05:05,VALID,917.222,VALID,0,VALID,94.0272,VALID,0,VALID,19.3923,VALID,55,VALID,0,
2013-01-11, 02:06:05,VALID,917.205,VALID,0,VALID,94.1034,VALID,0,VALID,19.3728,VALID,55,VALID,0,
2013-01-11, 02:07:05,VALID,917.195,VALID,0,VALID,94.2254,VALID,0,VALID,19.3728,VALID,55,VALID,0,
2013-01-11, 02:08:05,VALID,917.174,VALID,0,VALID,94.233,VALID,0,VALID,19.3937,VALID,55,VALID,0,
2013-01-11, 02:09:05,VALID,917.168,VALID,0,VALID,94.294,VALID,0,VALID,19.3533,VALID,55,VALID,0,
2013-01-11, 02:10:05,VALID,917.166,VALID,0,VALID,94.3245,VALID,0,VALID,19.3338,VALID,55,VALID,0,
2013-01-11, 02:11:05,VALID,917.117,VALID,0,VALID,94.3626,VALID,0,VALID,19.3742,VALID,55,VALID,0,
2013-01-11, 02:12:05,VALID,917.116,VALID,0,VALID,94.3398,VALID,0,VALID,19.3533,VALID,55,VALID,0,
2013-01-11, 02:13:05,VALID,917.113,VALID,0,VALID,94.2178,VALID,0,VALID,19.3908,VALID,55,VALID,0,
2013-01-11, 02:14:05,VALID,917.098,VALID,0,VALID,94.0882,VALID,0,VALID,19.4118,VALID,55,VALID,0,
2013-01-11, 02:15:05,VALID,917.091,VALID,0,VALID,93.951,VALID,0,VALID,19.4118,VALID,55,VALID,0,
2013-01-11, 02:16:05,VALID,917.07,VALID,0,VALID,93.8138,VALID,0,VALID,19.4313,VALID,55,VALID,0,
2013-01-11, 02:17:05,VALID,917.062,VALID,0,VALID,93.6918,VALID,0,VALID,19.4508,VALID,55,VALID,0,
2013-01-11, 02:18:05,VALID,917.039,VALID,0,VALID,93.5088,VALID,0,VALID,19.4313,VALID,55,VALID,0,
2013-01-11, 02:19:05,VALID,916.979,VALID,0,VALID,93.303,VALID,0,VALID,19.4508,VALID,55,VALID,0,
2013-01-11, 02:20:05,VALID,916.979,VALID,0,VALID,93.1734,VALID,0,VALID,19.4508,VALID,55,VALID,0,
2013-01-11, 02:21:05,VALID,917.004,VALID,0,VALID,92.9828,VALID,0,VALID,19.4508,VALID,55,VALID,0,
2013-01-11, 02:22:05,VALID,916.951,VALID,0,VALID,92.9371,VALID,0,VALID,19.4703,VALID,55,VALID,0,
2013-01-11, 02:23:05,VALID,916.934,VALID,0,VALID,92.7922,VALID,0,VALID,19.4703,VALID,55,VALID,0,
2013-01-11, 02:24:05,VALID,916.911,VALID,0,VALID,92.7846,VALID,0,VALID,19.4898,VALID,55,VALID,0,
2013-01-11, 02:25:05,VALID,916.897,VALID,0,VALID,92.4949,VALID,0,VALID,19.4508,VALID,55,VALID,0,
2013-01-11, 02:26:05,VALID,916.922,VALID,0,VALID,92.0451,VALID,0,VALID,19.3533,VALID,55,VALID,0,
2013-01-11, 02:27:05,VALID,916.886,VALID,0,VALID,92.5254,VALID,0,VALID,19.2753,VALID,55,VALID,0,
2013-01-11, 02:28:05,VALID,916.874,VALID,0,VALID,92.9371,VALID,0,VALID,19.2363,VALID,55,VALID,0,
2013-01-11, 02:29:05,VALID,916.863,VALID,0,VALID,93.3335,VALID,0,VALID,19.1778,VALID,55,VALID,0,
2013-01-11, 02:30:05,VALID,916.859,VALID,0,VALID,93.4402,VALID,0,VALID,19.1402,VALID,55,VALID,0,
2013-01-11, 02:31:05,VALID,916.831,VALID,0,VALID,93.646,VALID,0,VALID,19.1193,VALID,55,VALID,0,
2013-01-11, 02:32:05,VALID,916.794,VALID,0,VALID,93.9891,VALID,0,VALID,19.1583,VALID,55,VALID,0,
2013-01-11, 02:33:05,VALID,916.791,VALID,0,VALID,94.1263,VALID,0,VALID,19.1583,VALID,55,VALID,0,
2013-01-11, 02:34:05,VALID,916.816,VALID,0,VALID,94.0501,VALID,0,VALID,19.1388,VALID,55,VALID,0,
2013-01-11, 02:35:05,VALID,916.821,VALID,0,VALID,93.8061,VALID,0,VALID,19.0998,VALID,55,VALID,0,
2013-01-11, 02:36:05,VALID,916.783,VALID,0,VALID,93.9738,VALID,0,VALID,19.0803,VALID,55,VALID,0,
2013-01-11, 02:37:05,VALID,916.822,VALID,0,VALID,94.2559,VALID,0,VALID,19.0803,VALID,55,VALID,0,
2013-01-11, 02:38:05,VALID,916.786,VALID,0,VALID,94.355,VALID,0,VALID,19.0803,VALID,55,VALID,0,
2013-01-11, 02:39:05,VALID,916.768,VALID,0,VALID,94.4846,VALID,0,VALID,19.0998,VALID,55,VALID,0,
2013-01-11, 02:40:05,VALID,916.768,VALID,0,VALID,94.3398,VALID,0,VALID,19.1193,VALID,55,VALID,0,
2013-01-11, 02:41:05,VALID,916.746,VALID,0,VALID,94.2559,VALID,0,VALID,19.0413,VALID,55,VALID,0,
2013-01-11, 02:42:05,VALID,916.738,VALID,0,VALID,94.4236,VALID,0,VALID,19.0608,VALID,55,VALID,0,
2013-01-11, 02:43:05,VALID,916.729,VALID,0,VALID,94.7057,VALID,0,VALID,19.1012,VALID,55,VALID,0,
2013-01-11, 02:44:05,VALID,916.74,VALID,0,VALID,94.8887,VALID,0,VALID,19.1973,VALID,55,VALID,0,
2013-01-11, 02:45:05,VALID,916.724,VALID,0,VALID,94.8505,VALID,0,VALID,19.2363,VALID,55,VALID,0,
2013-01-11, 02:46:05,VALID,916.7,VALID,0,VALID,94.7743,VALID,0.107441,VALID,19.2753,VALID,55,VALID,0,
2013-01-11, 02:47:05,VALID,916.666,VALID,0,VALID,94.6142,VALID,0,VALID,19.2572,VALID,55,VALID,0,
2013-01-11, 02:48:05,VALID,916.633,VALID,0,VALID,94.477,VALID,0,VALID,19.2558,VALID,55,VALID,0,
2013-01-11, 02:49:05,VALID,916.66,VALID,0,VALID,94.4236,VALID,0,VALID,19.2767,VALID,55,VALID,0,
2013-01-11, 02:50:05,VALID,916.66,VALID,0,VALID,94.2635,VALID,0,VALID,19.2558,VALID,55,VALID,0,
2013-01-11, 02:51:05,VALID,916.682,VALID,0,VALID,93.768,VALID,0,VALID,19.2377,VALID,55,VALID,0,
2013-01-11, 02:52:05,VALID,916.659,VALID,0,VALID,93.6689,VALID,0,VALID,19.2363,VALID,55,VALID,0,
2013-01-11, 02:53:05,VALID,916.665,VALID,0,VALID,93.0438,VALID,0,VALID,19.1388,VALID,55,VALID,0,
2013-01-11, 02:54:05,VALID,916.637,VALID,0,VALID,93.1505,VALID,0,VALID,19.0803,VALID,55,VALID,0,
2013-01-11, 02:55:05,VALID,916.626,VALID,0,VALID,93.6994,VALID,0,VALID,19.0803,VALID,55,VALID,0,
2013-01-11, 02:56:05,VALID,916.617,VALID,0,VALID,93.6232,VALID,0,VALID,19.0413,VALID,55,VALID,0,
2013-01-11, 02:57:05,VALID,916.579,VALID,0,VALID,93.3716,VALID,0,VALID,18.9243,VALID,55,VALID,0,
2013-01-11, 02:58:05,VALID,916.545,VALID,0,VALID,93.5241,VALID,0,VALID,18.9048,VALID,55,VALID,0,
2013-01-11, 02:59:05,VALID,916.541,VALID,0,VALID,94.0196,VALID,0,VALID,18.8658,VALID,55,VALID,0,
2013-01-11, 03:00:05,VALID,916.528,VALID,0,VALID,94.3703,VALID,0,VALID,18.8867,VALID,55,VALID,0,
2013-01-11, 03:01:05,VALID,916.506,VALID,0,VALID,94.5837,VALID,0,VALID,18.9062,VALID,55,VALID,0,
2013-01-11, 03:02:05,VALID,916.48,VALID,0,VALID,94.7743,VALID,0,VALID,18.8853,VALID,55,VALID,0,
2013-01-11, 03:03:05,VALID,916.476,VALID,0,VALID,94.881,VALID,0,VALID,18.9257,VALID,55,VALID,0,
2013-01-11, 03:04:05,VALID,916.491,VALID,0,VALID,94.82,VALID,0,VALID,18.9048,VALID,55,VALID,0,
2013-01-11, 03:05:05,VALID,916.467,VALID,0,VALID,94.8658,VALID,0,VALID,18.9257,VALID,55,VALID,0,
2013-01-11, 03:06:05,VALID,916.453,VALID,0,VALID,95.0488,VALID,0,VALID,18.9438,VALID,55,VALID,0,
2013-01-11, 03:07:05,VALID,916.478,VALID,0,VALID,95.0945,VALID,0,VALID,18.9842,VALID,55,VALID,0,
2013-01-11, 03:08:05,VALID,916.417,VALID,0,VALID,95.003,VALID,0,VALID,19.0037,VALID,55,VALID,0,
2013-01-11, 03:09:05,VALID,916.463,VALID,0,VALID,94.8887,VALID,0,VALID,18.9828,VALID,55,VALID,0,
2013-01-11, 03:10:05,VALID,916.419,VALID,0,VALID,94.6523,VALID,0,VALID,18.9842,VALID,55,VALID,0,
2013-01-11, 03:11:05,VALID,916.398,VALID,0,VALID,94.4389,VALID,0,VALID,18.9438,VALID,55,VALID,0,
2013-01-11, 03:12:05,VALID,916.411,VALID,0,VALID,94.2864,VALID,0.107441,VALID,18.9424,VALID,55,VALID,0,
2013-01-11, 03:13:05,VALID,916.376,VALID,0,VALID,94.1187,VALID,0.107441,VALID,18.9438,VALID,55,VALID,0,
2013-01-11, 03:14:05,VALID,916.382,VALID,0,VALID,94.4008,VALID,0,VALID,18.9828,VALID,55,VALID,0,
2013-01-11, 03:15:05,VALID,916.383,VALID,0,VALID,94.4922,VALID,0.107441,VALID,18.9814,VALID,55,VALID,0,
2013-01-11, 03:16:05,VALID,916.42,VALID,0,VALID,94.6142,VALID,0.107441,VALID,18.9424,VALID,55,VALID,0,
2013-01-11, 03:17:05,VALID,916.388,VALID,0,VALID,94.7057,VALID,0,VALID,18.9814,VALID,55,VALID,0,
2013-01-11, 03:18:05,VALID,916.39,VALID,0,VALID,94.6447,VALID,0.107441,VALID,18.9424,VALID,55,VALID,0,
2013-01-11, 03:19:05,VALID,916.361,VALID,0,VALID,94.7896,VALID,0.107441,VALID,18.9619,VALID,55,VALID,0,
2013-01-11, 03:20:05,VALID,916.36,VALID,0,VALID,94.9268,VALID,0,VALID,18.9828,VALID,55,VALID,0,
2013-01-11, 03:21:05,VALID,916.344,VALID,0,VALID,94.7514,VALID,0,VALID,18.9424,VALID,55,VALID,0,
2013-01-11, 03:22:05,VALID,916.32,VALID,0,VALID,94.7743,VALID,0.107441,VALID,18.9034,VALID,55,VALID,0,
2013-01-11, 03:23:04,VALID,916.325,VALID,0,VALID,94.7133,VALID,0.107441,VALID,18.8254,VALID,55,VALID,0,
2013-01-11, 03:24:04,VALID,916.313,VALID,0,VALID,94.8429,VALID,0.107441,VALID,18.7864,VALID,55,VALID,0,
2013-01-11, 03:25:04,VALID,916.319,VALID,0,VALID,94.9725,VALID,0,VALID,18.7864,VALID,55,VALID,0,
2013-01-11, 03:26:04,VALID,916.332,VALID,0,VALID,95.0869,VALID,0.107441,VALID,18.8463,VALID,55,VALID,0,
2013-01-11, 03:27:04,VALID,916.305,VALID,0,VALID,95.186,VALID,0,VALID,18.8463,VALID,55,VALID,0,
2013-01-11, 03:28:04,VALID,916.308,VALID,0,VALID,95.1783,VALID,0,VALID,18.8672,VALID,55,VALID,0,
2013-01-11, 03:29:04,VALID,916.311,VALID,0,VALID,95.186,VALID,0,VALID,18.8658,VALID,55,VALID,0,
2013-01-11, 03:30:04,VALID,916.317,VALID,0,VALID,95.1097,VALID,0,VALID,18.8867,VALID,55,VALID,0,
2013-01-11, 03:31:04,VALID,916.309,VALID,0,VALID,95.1097,VALID,0,VALID,18.8853,VALID,55,VALID,0,
2013-01-11, 03:32:04,VALID,916.312,VALID,0,VALID,95.003,VALID,0,VALID,18.8658,VALID,55,VALID,0,
2013-01-11, 03:33:04,VALID,916.271,VALID,0,VALID,94.5227,VALID,0,VALID,18.8282,VALID,55,VALID,0,
2013-01-11, 03:34:04,VALID,916.284,VALID,0,VALID,94.4694,VALID,0,VALID,18.7892,VALID,55,VALID,0,
2013-01-11, 03:35:04,VALID,916.259,VALID,0,VALID,94.538,VALID,0,VALID,18.7892,VALID,55,VALID,0,
2013-01-11, 03:36:04,VALID,916.273,VALID,0,VALID,94.3398,VALID,0,VALID,18.7503,VALID,55,VALID,0,
2013-01-11, 03:37:04,VALID,916.24,VALID,0,VALID,94.1339,VALID,0,VALID,18.6918,VALID,55,VALID,0,
2013-01-11, 03:38:04,VALID,916.248,VALID,0,VALID,94.0501,VALID,0,VALID,18.6723,VALID,55,VALID,0,
2013-01-11, 03:39:04,VALID,916.258,VALID,0,VALID,93.9967,VALID,0,VALID,18.6528,VALID,55,VALID,0,
2013-01-11, 03:40:04,VALID,916.271,VALID,0,VALID,93.8671,VALID,0,VALID,18.6333,VALID,55,VALID,0,
2013-01-11, 03:41:04,VALID,916.256,VALID,0,VALID,93.7147,VALID,0,VALID,18.5929,VALID,55,VALID,0,
2013-01-11, 03:42:04,VALID,916.259,VALID,0,VALID,94.3321,VALID,0,VALID,18.6333,VALID,55,VALID,0,
2013-01-11, 03:43:04,VALID,916.25,VALID,0,VALID,94.6066,VALID,0,VALID,18.6513,VALID,55,VALID,0,
2013-01-11, 03:44:04,VALID,916.318,VALID,0,VALID,94.82,VALID,0,VALID,18.6918,VALID,55,VALID,0,
2013-01-11, 03:45:04,VALID,916.34,VALID,0,VALID,94.9496,VALID,0,VALID,18.6723,VALID,55,VALID,0,
2013-01-11, 03:46:04,VALID,916.353,VALID,0,VALID,95.0869,VALID,0,VALID,18.6723,VALID,55,VALID,0,
2013-01-11, 03:47:04,VALID,916.351,VALID,0,VALID,95.2698,VALID,0,VALID,18.7113,VALID,55,VALID,0,
2013-01-11, 03:48:04,VALID,916.37,VALID,0,VALID,95.3156,VALID,0,VALID,18.7308,VALID,55,VALID,0,
2013-01-11, 03:49:04,VALID,916.364,VALID,0,VALID,95.3994,VALID,0,VALID,18.7308,VALID,55,VALID,0,
2013-01-11, 03:50:04,VALID,916.392,VALID,0,VALID,95.4452,VALID,0,VALID,18.7293,VALID,55,VALID,0,
2013-01-11, 03:51:04,VALID,916.397,VALID,0,VALID,95.4223,VALID,0,VALID,18.7697,VALID,55,VALID,0,
2013-01-11, 03:52:04,VALID,916.406,VALID,0,VALID,95.3003,VALID,0,VALID,18.7308,VALID,55,VALID,0,
2013-01-11, 03:53:04,VALID,916.431,VALID,0,VALID,95.3232,VALID,0,VALID,18.7308,VALID,55,VALID,0,
2013-01-11, 03:54:04,VALID,916.45,VALID,0,VALID,95.2851,VALID,0,VALID,18.7098,VALID,55,VALID,0,
2013-01-11, 03:55:04,VALID,916.451,VALID,0,VALID,95.1402,VALID,0,VALID,18.6513,VALID,55,VALID,0,
2013-01-11, 03:56:04,VALID,916.46,VALID,0,VALID,94.9039,VALID,0,VALID,18.6138,VALID,55,VALID,0,
2013-01-11, 03:57:04,VALID,916.44,VALID,0,VALID,94.942,VALID,0.107441,VALID,18.5929,VALID,55,VALID,0,
2013-01-11, 03:58:04,VALID,916.461,VALID,0,VALID,94.9344,VALID,0,VALID,18.5539,VALID,55,VALID,0,
2013-01-11, 03:59:04,VALID,916.49,VALID,0,VALID,94.6371,VALID,0,VALID,18.4564,VALID,55,VALID,0,
2013-01-11, 04:00:04,VALID,916.501,VALID,0,VALID,94.4694,VALID,0,VALID,18.3784,VALID,55,VALID,0,